{"data":{"norad_id":65684,"intl_designator":"2025-212J","name":"STARLINK-34795","alt_names":[],"object_type":"PAYLOAD","status":"ACTIVE","operator":null,"country":"US","launch_date":"2025-09-21","launch_site_code":"AFETR","launch_vehicle":null,"mission":null,"orbit_class":"UNKNOWN","rcs_meters":null,"size_class":null,"mass_kg":null,"dimensions":null,"purposes":["comms"],"wikipedia_slug":null,"has_3d_model":false,"image_url":null,"decayed_at":null,"tle_current":{"epoch":"2026-05-24T20:27:13.030560Z","epoch_age_seconds":87879,"freshness":"FRESH","line1":"1 65684U 25212J   26144.85223415  .00014447  00000+0  49871-3 0  9999","line2":"2 65684  53.1599 351.9613 0001104  81.8615 278.2511 15.30214351 38851","mean_motion":15.30214351,"eccentricity":0.0001104,"inclination_deg":53.1599,"raan_deg":351.9613,"arg_perigee_deg":81.8615,"mean_anomaly_deg":278.2511,"bstar":0.00049871,"rev_number":3885,"period_min":94.104463146549,"perigee_km":474.41561491708,"apogee_km":475.92882559291,"semimajor_km":6853.309220255,"source":"CELESTRAK","updated_at":"2026-05-25T13:38:20.895103Z"}}}